TimeEDT,TemperatureF,Dew PointF,Humidity,Sea Level PressureIn,VisibilityMPH,Wind Direction,Wind SpeedMPH,Gust SpeedMPH,PrecipitationIn,Events,Conditions,WindDirDegrees,DateUTC
12:53 AM,39.0,37.9,96,30.19,10.0,NNW,3.5,-,N/A,,Clear,330,2012-10-10 04:53:00
1:53 AM,39.0,37.9,96,30.18,10.0,North,3.5,-,N/A,,Scattered Clouds,350,2012-10-10 05:53:00
2:53 AM,39.0,37.0,93,30.16,10.0,North,4.6,-,N/A,,Clear,360,2012-10-10 06:53:00
3:53 AM,39.0,37.0,93,30.14,10.0,NNE,4.6,-,N/A,,Partly Cloudy,20,2012-10-10 07:53:00
4:53 AM,37.9,36.0,93,30.13,10.0,Calm,Calm,-,N/A,,Clear,0,2012-10-10 08:53:00
5:53 AM,36.0,36.0,100,30.12,9.0,NW,4.6,-,N/A,,Mostly Cloudy,310,2012-10-10 09:53:00
6:53 AM,37.9,37.0,97,30.12,10.0,NNW,6.9,-,N/A,,Overcast,340,2012-10-10 10:53:00
7:53 AM,39.9,39.0,97,30.12,10.0,NNW,3.5,-,N/A,,Overcast,340,2012-10-10 11:53:00
8:53 AM,41.0,39.0,93,30.09,10.0,NW,5.8,-,N/A,,Overcast,320,2012-10-10 12:53:00
9:04 AM,42.8,39.2,87,30.08,10.0,NNW,4.6,-,N/A,,Overcast,340,2012-10-10 13:04:00
9:53 AM,44.1,41.0,89,30.08,10.0,NW,3.5,-,N/A,,Overcast,320,2012-10-10 13:53:00
10:53 AM,46.0,42.1,86,30.05,10.0,Calm,Calm,-,N/A,,Overcast,0,2012-10-10 14:53:00
11:53 AM,48.0,43.0,83,30.03,10.0,Calm,Calm,-,N/A,,Overcast,0,2012-10-10 15:53:00
12:13 PM,48.2,44.6,87,30.01,10.0,Calm,Calm,-,N/A,,Overcast,0,2012-10-10 16:13:00
12:53 PM,48.9,45.0,86,29.99,10.0,Calm,Calm,-,N/A,,Overcast,0,2012-10-10 16:53:00
1:34 PM,48.2,46.4,93,29.95,7.0,Calm,Calm,-,N/A,,Overcast,0,2012-10-10 17:34:00
1:53 PM,50.0,46.0,86,29.95,10.0,NE,3.5,-,N/A,,Overcast,50,2012-10-10 17:53:00
2:17 PM,50.0,46.4,87,29.92,10.0,NE,4.6,-,N/A,,Overcast,50,2012-10-10 18:17:00
2:53 PM,50.0,46.0,86,29.91,10.0,NE,4.6,-,0.00,,Overcast,40,2012-10-10 18:53:00
3:34 PM,50.0,48.2,94,29.86,2.5,NE,5.8,-,0.04,Rain,Heavy Rain,40,2012-10-10 19:34:00
3:48 PM,50.0,48.2,94,29.85,4.0,NE,4.6,-,0.06,Rain,Light Rain,50,2012-10-10 19:48:00
3:53 PM,50.0,48.9,96,29.86,5.0,NE,4.6,-,0.06,Rain,Light Rain,40,2012-10-10 19:53:00
4:15 PM,50.0,50.0,100,29.83,1.8,East,4.6,-,0.00,Rain,Light Rain,80,2012-10-10 20:15:00
4:32 PM,51.8,50.0,94,29.81,3.0,East,3.5,-,0.01,Rain,Light Rain,80,2012-10-10 20:32:00
4:43 PM,51.8,51.8,100,29.81,2.0,East,3.5,-,0.01,,Overcast,100,2012-10-10 20:43:00
4:51 PM,51.8,51.8,100,29.80,1.2,ESE,5.8,-,0.01,,Overcast,120,2012-10-10 20:51:00
4:53 PM,52.0,52.0,100,29.81,1.2,ESE,5.8,-,0.01,,Overcast,120,2012-10-10 20:53:00
5:39 PM,53.6,53.6,100,29.77,2.0,SSE,10.4,19.6,0.00,Rain,Light Rain,150,2012-10-10 21:39:00
5:53 PM,55.0,54.0,96,29.77,3.0,SSE,11.5,17.3,0.01,Rain,Light Rain,150,2012-10-10 21:53:00
6:53 PM,55.0,54.0,96,29.73,4.0,SSE,10.4,19.6,0.02,Rain-Thunderstorm,Light Thunderstorms and Rain,150,2012-10-10 22:53:00
7:09 PM,55.4,53.6,94,29.71,5.0,SE,10.4,-,0.01,Rain,Light Rain,140,2012-10-10 23:09:00
7:53 PM,55.0,55.0,100,29.69,6.0,SE,10.4,-,0.10,Rain,Light Rain,140,2012-10-10 23:53:00
8:23 PM,55.4,55.4,100,29.68,2.5,South,5.8,-,0.03,Rain,Light Rain,170,2012-10-11 00:23:00
8:35 PM,55.4,55.4,100,29.67,3.0,South,6.9,-,N/A,Rain,Light Rain,170,2012-10-11 00:35:00
8:44 PM,55.4,55.4,100,29.66,3.0,SSE,6.9,-,0.06,Rain,Light Rain,160,2012-10-11 00:44:00
8:53 PM,55.9,55.0,97,29.66,3.0,SSE,6.9,-,0.07,Rain,Light Rain,150,2012-10-11 00:53:00
9:00 PM,55.4,55.4,100,29.65,2.5,SSE,9.2,-,0.00,Rain,Light Rain,160,2012-10-11 01:00:00
9:10 PM,55.4,55.4,100,29.65,1.0,SSE,8.1,-,0.02,Rain,Rain,160,2012-10-11 01:10:00
9:39 PM,55.4,55.4,100,29.63,0.8,Calm,Calm,-,0.03,Rain,Light Rain,0,2012-10-11 01:39:00
9:48 PM,55.4,55.4,100,29.63,1.2,Calm,Calm,-,0.04,Rain,Light Rain,0,2012-10-11 01:48:00
9:53 PM,55.9,55.0,97,29.63,1.8,South,3.5,-,0.04,Rain,Light Rain,190,2012-10-11 01:53:00
10:14 PM,55.4,55.4,100,29.63,3.0,West,5.8,-,0.01,Rain,Light Rain,260,2012-10-11 02:14:00
10:34 PM,55.4,53.6,94,29.63,10.0,WNW,8.1,-,0.01,Rain,Light Rain,300,2012-10-11 02:34:00
10:53 PM,54.0,52.0,93,29.64,10.0,WNW,9.2,-,0.01,,Overcast,290,2012-10-11 02:53:00
11:00 PM,53.6,51.8,94,29.63,10.0,West,6.9,-,0.00,Rain,Light Rain,280,2012-10-11 03:00:00
11:19 PM,53.6,51.8,94,29.63,10.0,West,5.8,-,0.00,,Overcast,280,2012-10-11 03:19:00
11:53 PM,53.1,48.9,86,29.67,10.0,WNW,13.8,19.6,0.00,,Overcast,290,2012-10-11 03:53:00